Погода в Святославке

Россия / Саратовская область     51°19′30″N   43°26′10″E
темп.,
°C
ветер,
м/с
пор.,
м/с
влажн.,
%
обл.,
%
осадки,
мм/ч
давл.,
гПа
погр.,
м
6 марта, сб
сб601:00−6ссз2291100 0.0 101521
04:00−6с2292100 0.0 101621
07:00−5в1296100 0.1 101563
10:00−4в1294100 0.1 101697
13:00−3ссв1189100 0.0 1015292
16:00−3св2292100 0.3 1014251
19:00−4св1198100 0.6 101425
22:00−5сз3796100 1.8 1014331
7 марта, вс
вс701:00−10сз5119594 0.1 1015267
04:00−11сз5109494 0.2 1016245
07:00−14зсз479526 0.0 1017103
10:00−10зюз499313 0.0 1018311
13:00−5зюз611814 0.0 1016942
16:00−3юз7137952 0.0 10121039
19:00−3юз71674100 0.0 1009875
22:00−3юз101970100 0.0 1006913
8 марта, пн
пн801:00−2зюз101792100 0.1 1004944
04:00−2зюз91691100 0.3 10041053
07:00−2зюз71394100 0.4 1004682
10:00−2зюз71384100 0.8 1005879
13:00−1з7147996 0.0 10051333
16:00−2з8138079 0.2 10061236
19:00−7зсз5138033 0.0 1009385
22:00−10зсз498917 0.0 1012189
9 марта, вт
вт901:00−13зсз34900 0.0 101365
04:00−13з33910 0.0 101431
07:00−14з22910 0.0 101520
10:00−11зюз12908 0.0 101576
13:00−8сз128696 0.0 1015246
16:00−7ссв128796 0.0 1015308
19:00−10ссв2395100 0.0 101524
22:00−11с3595100 0.1 1017113
10 марта, ср
ср1001:00−14с3594100 0.0 1018121
04:00−14ссз4794100 0.1 1020215
07:00−15ссз479699 0.0 1021200
10:00−16ссз489367 0.0 1023268
13:00−14ссз58840 0.0 1025518
16:00−14сз46820 0.0 1025559
19:00−18ссз22927 0.0 102520
22:00−17ссв119146 0.0 102620